Weather History for Pascagoula, MS

Change the Weather History Date:

Thursday, November 3, 2011

  Actual Average Record
Temperature  
Mean Temperature 62 °F -  
Max Temperature 78 °F 73 °F 85 °F (1975)
Min Temperature 46 °F 53 °F 30 °F (1954)
Degree Days  
Heating Degree Days 4    
Growing Degree Days 12 (Base 50)    
Moisture  
Dew Point 57 °F    
Average Humidity 82    
Maximum Humidity 100    
Minimum Humidity 66    
Precipitation  
Precipitation 0.06 in - - ()
Sea Level Pressure  
Sea Level Pressure 30.05 in    
Wind  
Wind Speed 4 mph (West)    
Max Wind Speed 14 mph    
Max Gust Speed 24 mph    
Visibility 9 miles    
Events Rain    
Averages and records for this station are not official NWS values.
T = Trace of Precipitation, MM = Missing Value Source: NWS Daily Summary

Daily Weather History Graph

Daily Weather History Graph

Search for Another Location

Airport:

Trip Planner

Search our weather history database for the weather conditions in past years. The results will help you decide how hot, cold, wet, or windy it might be!

Date:

Astronomy

Nov. 03, 2011 Rise Set
Actual Time 7:09 AM CDT 6:04 PM CDT
Civil Twilight 6:45 AM CDT 6:29 PM CDT
Nautical Twilight 6:16 AM CDT 6:58 PM CDT
Astronomical Twilight 5:48 AM CDT 7:26 PM CDT
Moon 2:03 PM CDT (11/3) 12:49 AM CDT (11/3)
Length of Visible Light 11h 44m
Length of Day
10h 54m
First Quarter, 60% of the Moon is Illuminated
Nov 3
First Quarter
Nov 10
Full
Nov 18
Last Quarter
Nov 25
New
Dec 2
First Quarter

Hourly Weather History & Observations

Time (CDT) Temp. Windchill Dew Point Humidity Pressure Visibility Wind Dir Wind Speed Gust Speed Precip Events Conditions
12:53 AM 55.9 °F - 54.0 °F 93% 30.14 in 8.0 mi Calm Calm - N/A   Clear
1:53 AM 55.9 °F - 54.0 °F 93% 30.13 in 4.0 mi Calm Calm - N/A   Clear
2:53 AM 57.0 °F - 55.0 °F 93% 30.12 in 8.0 mi Calm Calm - N/A   Scattered Clouds
3:53 AM 57.0 °F - 55.0 °F 93% 30.11 in 8.0 mi Calm Calm - N/A   Mostly Cloudy
4:53 AM 55.9 °F - 55.9 °F 100% 30.10 in 5.0 mi Calm Calm - N/A   Mostly Cloudy
5:53 AM 61.0 °F - 59.0 °F 93% 30.10 in 9.0 mi Calm Calm - N/A   Overcast
6:53 AM 64.9 °F - 61.0 °F 87% 30.09 in 10.0 mi SSE 6.9 mph - N/A   Mostly Cloudy
7:53 AM 66.9 °F - 63.0 °F 87% 30.07 in 10.0 mi SSE 6.9 mph - N/A   Partly Cloudy
8:53 AM 71.1 °F - 63.0 °F 75% 30.08 in 10.0 mi SSE 9.2 mph - N/A   Overcast
9:53 AM 75.0 °F - 64.9 °F 71% 30.07 in 10.0 mi South 12.7 mph 21.9 mph 0.00 in Rain Light Rain
10:53 AM 75.9 °F - 66.0 °F 71% 30.07 in 10.0 mi SSW 8.1 mph 20.7 mph 0.00 in   Overcast
11:53 AM 75.0 °F - 66.0 °F 73% 30.03 in 10.0 mi SSW 9.2 mph 24.2 mph N/A   Mostly Cloudy
12:53 PM 71.1 °F - 66.9 °F 87% 30.02 in 2.5 mi Variable 5.8 mph - 0.03 in Rain Rain
1:01 PM 69.8 °F - 68.0 °F 94% 30.01 in 1.2 mi SW 5.8 mph - 0.03 in Rain Heavy Rain
1:06 PM 71.6 °F - 68.0 °F 88% 30.00 in 3.0 mi Variable 4.6 mph - 0.03 in Rain Light Rain
1:18 PM 71.6 °F - 68.0 °F 88% 29.99 in 10.0 mi SW 4.6 mph - 0.03 in   Overcast
1:53 PM 72.0 °F - 66.9 °F 84% 29.98 in 10.0 mi SW 5.8 mph - 0.03 in   Overcast
2:14 PM 73.4 °F - 66.2 °F 78% 29.97 in 10.0 mi Variable 4.6 mph - N/A   Mostly Cloudy
2:53 PM 66.0 °F - 60.1 °F 81% 29.99 in 10.0 mi NNW 10.4 mph - N/A   Overcast
3:43 PM 60.8 °F - 53.6 °F 77% 29.99 in 10.0 mi Variable 6.9 mph 16.1 mph N/A   Overcast
3:53 PM 59.0 °F - 54.0 °F 83% 30.00 in 10.0 mi North 13.8 mph 18.4 mph N/A   Overcast
4:16 PM 60.8 °F - 53.6 °F 77% 29.99 in 10.0 mi NNW 5.8 mph - N/A   Scattered Clouds
4:53 PM 59.0 °F - 50.0 °F 72% 30.01 in 10.0 mi NNW 11.5 mph - N/A   Mostly Cloudy
5:53 PM 57.9 °F - 48.0 °F 70% 30.02 in 10.0 mi NNW 6.9 mph - N/A   Clear
6:53 PM 55.0 °F - 45.0 °F 69% 30.05 in 10.0 mi NNW 8.1 mph - N/A   Clear
7:53 PM 53.1 °F - 42.1 °F 66% 30.07 in 10.0 mi NW 5.8 mph - N/A   Clear
8:53 PM 51.1 °F - 43.0 °F 74% 30.09 in 10.0 mi NNW 8.1 mph - N/A   Clear
9:53 PM 48.0 °F - 43.0 °F 83% 30.12 in 10.0 mi NNW 4.6 mph - N/A   Clear
10:53 PM 46.0 °F 44.8 °F 41.0 °F 83% 30.12 in 10.0 mi Variable 3.5 mph - N/A   Clear